This is the latest recevied weather packets stored in our database for station/object K1JO. If no packets are shown the sender has not sent any weather packets the latest 10 day(s).
| Time | Temp. | Humidity | Pressure | Rain* | Wind** | Luminosity | Snow |
|---|---|---|---|---|---|---|---|
| 1777681588 | 7.78° C | 63% | 1006.4 hPa | 0 mm | - | 0 W/m² | - |
| 1777681286 | 8.33° C | 61% | 1006.2 hPa | 0 mm | - | 0 W/m² | - |
| 1777680983 | 8.33° C | 61% | 1006.1 hPa | 0 mm | - | 0 W/m² | - |
| 1777680680 | 8.33° C | 64% | 1005.7 hPa | 0 mm | - | 0 W/m² | - |
| 1777680378 | 8.89° C | 62% | 1005.9 hPa | 0 mm | - | 1 W/m² | - |
| 1777680076 | 8.89° C | 62% | 1005.6 hPa | 0 mm | - | 1 W/m² | - |
| 1777679771 | 8.89° C | 62% | 1005.4 hPa | 0 mm | - | 1 W/m² | - |
| 1777679467 | 8.89° C | 62% | 1005.3 hPa | 0 mm | - | 1 W/m² | - |
| 1777679163 | 9.44° C | 60% | 1005.2 hPa | 0 mm | - | 6 W/m² | - |
| 1777678861 | 9.44° C | 60% | 1004.9 hPa | 0 mm | - | 6 W/m² | - |
| 1777678559 | 9.44° C | 60% | 1005 hPa | 0 mm | - | 6 W/m² | - |
| 1777678255 | 10° C | 60% | 1004.7 hPa | 0 mm | - | 8 W/m² | - |
| 1777677951 | 10° C | 62% | 1004.9 hPa | 0 mm | - | 10 W/m² | - |
| 1777677649 | 10.56° C | 60% | 1004.7 hPa | 0 mm | - | 17 W/m² | - |
| 1777677346 | 10.56° C | 60% | 1004.5 hPa | 0 mm | - | 17 W/m² | - |
| 1777677045 | 10.56° C | 59% | 1004.5 hPa | 0 mm | - | 18 W/m² | - |
| 1777676744 | 10.56° C | 60% | 1004.4 hPa | 0 mm | - | 20 W/m² | - |
| 1777676441 | 11.11° C | 58% | 1004.4 hPa | 0 mm | - | 23 W/m² | - |
| 1777676138 | 11.11° C | 57% | 1004.2 hPa | 0 mm | - | 30 W/m² | - |
| 1777675834 | 11.11° C | 57% | 1004 hPa | 0 mm | - | 30 W/m² | - |
| 1777675532 | 11.11° C | 57% | 1004.1 hPa | 0 mm | - | 33 W/m² | - |
| 1777675229 | 11.67° C | 56% | 1003.9 hPa | 0 mm | - | 38 W/m² | - |
| 1777674925 | 11.67° C | 55% | 1004 hPa | 0 mm | - | 35 W/m² | - |
| 1777674622 | 11.67° C | 55% | 1003.8 hPa | 0 mm | - | 35 W/m² | - |
| 1777674321 | 11.67° C | 56% | 1003.8 hPa | 0 mm | - | 36 W/m² | - |
* Rain latest hour (hover to see other rain measurements)
** Current wind speed in m/s (hover to see current wind gust speed)